Location: Bruch
(44.2051°N, 0.4120°E)
Time: 12:27:39
(UTC+00:00)

RESURS DK-1 - Pass Details

Date: 29 November 2020
Orbit: 557 x 560 km, 69.9° (Epoch: 25 January)

Event Time Altitude Azimuth Distance (km) Brightness Sun altitude
Exits shadow 06:03:20 - 234° (SW) 2,421 5.3 -12.0°
Reaches altitude 10° 06:04:54 10° 242° (WSW) 1,847 4.6 -11.7°
Maximum altitude 06:08:34 30° 305° (NW) 1,019 3.1 -11.1°
Drops below altitude 10° 06:12:16 10° 8° (N) 1,859 4.9 -10.5°
Sets 06:14:41 0° 19° (NNE) 2,759 5.9 -10.1°
